Find Kuiper-00048

NORAD ID: 64508 Int'l Des: 2025-134 Owner: KUIP Country: US Constellation: amazon-leo operational
LEOCIRCULAR

現在のビュー

3D地球を読み込み中...

About Kuiper-00048

Kuiper-00048 (NORAD 64508) is a amazon-leo constellation satellite launched Jun 23, 2025 by KUIP of US. It operates in LEO, CIRCULAR orbit with a mass of 490.00 kg.

次回通過

Passes for default location (London). Set your location on the main map for personalized predictions.

高度履歴

Loading altitude history...

軌道要素

1 64508U 25134J 26263.87791328 .00001782 00000-0 26270-3 0 9990
2 64508 51.8996 72.4392 0000744 114.2647 245.8394 14.79931374 69222
Epoch: Sep 20, 2026 • Age: 12 hours

現在のステータス

高度 629.2 km
遠地点 / 近地点 N/A
速度 7.55 km/s
衛星直下点 13.71°N, 101.8°E
打ち上げ日 Jun 23, 2025
運用期間 1.2 years
タイプ internet

技術仕様

分類 Payload
質量 490.00 kg
形状 ? Box + 2 pan
製造者 KUIP
バスタイプ Kuiper
フェーズステータス In Orbit
所有者/国 KUIP/US

Most Searched